Regional Weather Roundup
Issued by NWS

Home | Current Version | Previous Version | Graphics & Text | Print | Product List | Glossary Off
Versions: 1 2 3 4 5 6 7 8 9 10 11 12 13 14 15 16 17 18 19 20 21 22 23 24 25 26 27 28 29 30 31 32 33 34 35 36 37 38 39 40 41 42 43 44 45 46 47 48 49 50

000
ASUS43 KMKX 190800
RWRWI

WISCONSIN REGIONAL WEATHER ROUNDUP
NATIONAL WEATHER SERVICE MILWAUKEE/SULLIVAN WI
300 AM CDT SAT AUG 19 2017

NOTE: "FAIR" INDICATES FEW OR NO CLOUDS BELOW 12,000 FEET WITH NO
SIGNIFICANT WEATHER AND/OR OBSTRUCTIONS TO VISIBILITY.

WIZ001-002-006>008-014>016-023>028-190900-
NORTHWEST WISCONSIN

CITY           SKY/WX    TMP DP  RH WIND       PRES   REMARKS
SUPERIOR ARPT    N/A     56  56  99 SW6       29.86S
ASHLAND        CLEAR     59  56  89 W8        29.86S
HAYWARD        CLOUDY    60  59  96 SW3       29.90S FOG
SIREN          CLEAR     59  58  97 W3        29.91S
CUMBERLAND     CLEAR     59  55  88 W5        29.92S
RICE LAKE      CLEAR     58  58  98 CALM      29.93S FOG
CHETEK         FOG       58  58 100 CALM      29.92R VSB 1/2
LADYSMITH      FOG       63  62  97 W6        29.93R VSB 1
EAU CLAIRE     CLEAR     60  59  96 SW5       29.91S FOG
MENOMONIE      CLEAR     61  59  94 W5        29.92S
NEW RICHMOND     N/A     57  57 100 CALM      29.93S FOG
OSCEOLA        CLEAR     55  55 100 CALM      29.95S
$$

WIZ003>005-009-010-017-018-190900-
NORTH CENTRAL WISCONSIN

CITY           SKY/WX    TMP DP  RH WIND       PRES   REMARKS
MANITOWISH WTR CLOUDY    59  59 100 CALM      29.89R FOG
ARBOR VITAE    CLOUDY    62  61  96 W5        29.89S
WOODRUFF       CLOUDY    62  61  96 W5        29.89S
RHINELANDER    PTCLDY    57  57 100 W6        29.90S FOG
EAGLE RIVER    FOG       55  55 100 CALM      29.88F VSB 1/2
LAND O LAKES   FOG       53  53 100 CALM      29.89F VSB 1
PHILLIPS       CLOUDY    59  59 100 W3        29.89F FOG
TOMAHAWK       FOG       57  56  97 CALM      29.90F VSB 1
MEDFORD        CLOUDY    61  61  99 W5        29.91S FOG
MERRILL        NOT AVBL
$$

WIZ029-030-035-036-043>047-190900-
CENTRAL WISCONSIN

CITY           SKY/WX    TMP DP  RH WIND       PRES   REMARKS
WAUSAU         CLOUDY    63  62  97 NW5       29.89S FOG
MOSINEE        CLOUDY    61  61 100 NW7       29.92S FOG
MARSHFIELD     CLEAR     60  58  92 W5        29.90F FOG
STEVENS POINT  MOCLDY    61  61 100 W5        29.91S FOG
WAUPACA        CLEAR     64  63  97 W3        29.90S FOG
WAUTOMA        CLOUDY    64  63  96 W8        29.91S
WISC RAPIDS    PTCLDY    62  62 100 W3        29.92S
CAMP DOUGLAS   FOG       56  56 100 W3        29.91S VSB 1/2
$$

WIZ011>013-019>022-031-037>040-048>050-190900-
NORTHEAST WISCONSIN

CITY           SKY/WX    TMP DP  RH WIND       PRES   REMARKS
ANTIGO         PTCLDY    55  55 100 W5        29.91S FOG
SHAWANO        CLOUDY    62  59  91 CALM      29.88S
OCONTO         MOCLDY    56  55  95 CALM      29.86S
STURGEON BAY   CLOUDY    60  57  89 SW3       29.86F
GREEN BAY      CLOUDY    60  60 100 W5        29.87F
MANITOWOC      NOT AVBL
APPLETON       CLOUDY    61  59  94 W5        29.87S
CLINTONVILLE   MOCLDY    61  59  94 CALM      29.89R
OSHKOSH        CLOUDY    63  61  93 W5        29.89S
$$

WIZ032>034-041-042-053>061-190900-
SOUTHWEST WISCONSIN

CITY           SKY/WX    TMP DP  RH WIND       PRES   REMARKS
LA CROSSE      PTCLDY    61  59  93 S3        29.91F
SPARTA         FOG       53  53 100 CALM      29.93S VSB 3/4
VIROQUA        PTCLDY    58  58 100 CALM      29.93F
BOSCOBEL       FOG       58  57  97 CALM      29.93R VSB 1/4
PRAIRIE DU CHI FOG       59  58  96 CALM      29.93R VSB 1/4
PLATTEVILLE    PTCLDY    59  59 100 CALM      29.94S
$$

WIZ056-057-062-063-064-067-068-190900-
SOUTH CENTRAL WISCONSIN

CITY           SKY/WX    TMP DP  RH WIND       PRES   REMARKS
REEDSBURG      CLEAR     58  58 100 CALM      29.92S
BARABOO/DELLS  CLEAR     59  58  96 CALM      29.92S FOG
LONE ROCK      NOT AVBL
MINERAL POINT  PTCLDY    59  59 100 CALM      29.92F FOG
MADISON        PTCLDY    60  59  96 CALM      29.91S
MIDDLETON      PTCLDY    60  60 100 CALM      29.93S
WATERTOWN      MOCLDY    62  62 100 CALM      29.90F
MONROE         CLEAR     61  59  94 NW6       29.93S
JANESVILLE     FOG       59  59 100 CALM      29.92S VSB 1/2
$$

WIZ051-052-058>065-066-070>072-190900-
SOUTHEAST WISCONSIN

CITY           SKY/WX    TMP DP  RH WIND       PRES   REMARKS
MILWAUKEE      MOCLDY    67  62  84 NW6       29.89F
WAUKESHA       CLOUDY    61  59  94 W6        29.91F
MILWAUKEE/TIMM CLOUDY    63  57  82 CALM      29.90F
RACINE         CLEAR     63  61  93 W6        29.91S
KENOSHA        CLEAR     61  58  90 W3        29.90S
FOND DU LAC    CLOUDY    64  61  90 W5        29.89F
SHEBOYGAN      CLOUDY    62  62 100 SW3       29.88F
WEST BEND      CLOUDY    63  63 100 CALM      29.89F
JUNEAU         CLOUDY    63  61  94 CALM      29.91S
$$

LSZ147-162-190900-
LAKE SUPERIOR

STATION/POSITION TIME  TEMP    WIND        PRES    WAVE
                       AIR SEA DIR/SP/G            HT/PER
                 (UTC) (F)     (DEG/KT/KT) (MB)    (FT/S)
W MID LAKE BUOY  0650   62 60  250/ 14/ 14 1009.2R   1/ 4
DEVILS ISLAND    0700   63     240/ 16/ 20 1009.8F
SAXON HARBOR     0740   65     200/  8/ 13 1010.2S
$$

LMZ867-665-643>646-190900-
LAKE MICHIGAN

STATION/POSITION TIME  TEMP    WIND        PRES    WAVE
                       AIR SEA DIR/SP/G            HT/PER
                 (UTC) (F)     (DEG/KT/KT) (MB)    (FT/S)
S GREEN BAY BUOY 0730   68 70  260/  8/  8 1011.0F
N MID LAKE BUOY  0650   66 66  300/ 14/ 16 1011.0R
NORTHPORT PIER   0740   65     280/  4/  6 1010.5F
KEWAUNEE LAKESHO 0730   62     310/  2/  3 1010.3F
SHEBOYGAN LAKESH 0700   66     280/  3/  3 1011.6F
PORT WASHINGTON  0730   66     310/  4/  5 1012.9S
ATWATER BUOY     0609   68 71  290/ 12/ 14 1012.4S
MILWAUKEE LAKESH 0730   66     300/  7/  9   N/A
S MID LAKE BUOY  0650   70 71  360/ 14/ 16 1011.4R   1/ 3
KENOSHA   LAKESH 0700   66     300/  8/ 12 1012.2
$$

TC  - TEMPERATURE IN CELSIUS
VSB - VISIBILITY IN STATUTE MILES
WCI - WIND CHILL INDEX
HX  - HEAT INDEX





USA.gov is the U.S. government's official web portal to all federal, state and local government web resources and services.